Weather in Tyret' 1-ya

Russia / Irkutsk Oblast     53°40′08″N   102°18′57″E
temp.,
°C
wind,
m/s
gust,
m/s
humid.,
%
clouds,
%
prec.,
mm/h
press.,
hPa
HPBL,
m
5 march, fri
fri523:00−23ese349327 0.0 103759
02:00−23ese479516 0.0 1036115
05:00−23ese49945 0.0 1035165
08:00−22ese499319 0.0 1033181
11:00−17se58913 0.0 1030328
14:00−11se599042 0.0 1025402
17:00−9se5109196 0.0 1021417
20:00−11se5118980 0.0 1022262
6 march, sat
sat623:00−14se499356 0.0 1022259
02:00−13se249578 0.0 1024162
05:00−14se3395100 0.0 102550
08:00−15se229589 0.1 102721
11:00−8sse239296 0.0 1026125
14:00−2sse348793 0.0 1023330
17:00−2se359074 0.0 1021289
20:00−7ese239447 0.0 102232
7 march, sun
sun723:00−10ese229523 0.0 102121
02:00−9se129358 0.0 102021
05:00−11se228576 0.0 101921
08:00−11se238179 0.0 101927
11:00−6ese358378 0.0 1016197
14:00−1sse358870 0.0 1014318
17:000s249349 0.0 1013186
20:00−4nw239946 0.0 101735
8 march, mon
mon823:00−5w1196100 0.0 101921
02:00−5nw129598 0.1 102021
05:00−6nnw71289100 1.0 1023675
08:00−9wnw31182100 1.1 1027539
11:00−8nw4976100 0.0 1028776
14:00−6w247181 0.0 1027679
17:00−6se238133 0.0 1025368
20:00−10se378851 0.0 1026123
9 march, tue
tue923:00−9se5138899 0.0 1023348
02:00−8se51389100 0.0 1020406
05:00−11se3794100 0.0 1017150
08:00−13ese129698 0.0 101920
11:00−7s1188100 0.0 1019138
14:00−2ese1187100 0.0 1019171
17:00−1sse339178 0.0 1019178
20:00−5sw239176 0.0 102343